Location: Artiguedieu
(43.5000°N, 0.5454°E)
Time: 09:03:06
(UTC+00:00)

Explorer 7 - Pass Details

Date: 07 August 2021
Orbit: 484 x 676 km, 50.3° (Epoch: 22 September)

Event Time Altitude Azimuth Distance (km) Brightness Sun altitude
Rises 02:17:53 0° 222° (SW) 2,539 - -22.7°
Reaches altitude 10° 02:20:06 10° 215° (SW) 1,657 - -22.5°
Maximum altitude 02:23:39 44° 143° (SE) 678 - -22.1°
Exits shadow 02:24:08 42° 120° (ESE) 707 7.3 -22.0°
Drops below altitude 10° 02:27:16 10° 70° (ENE) 1,684 10.1 -21.7°
Sets 02:29:32 0° 64° (ENE) 2,586 11.3 -21.4°
